Date String (YYYY-MM-DD hh:mm:ss) UTC,Instrument flags,Ambient pressure (hPa),Sample flow (lpm),Bypass flow (lpm),Sample temperature (°C),Ambient temperature (°C),ASC tube jacket temperature (°C),LED temperature (°C),Box temperature (°C),Sample RH (%),Span deviation,Mass concentration (μg/m³),Mass concentration (μg/m³),Mass concentration (μg/m³)
DateTimeUTC,F1_M11,P_M11,Q1_M11,Q2_M11,T1_M11,T2_M11,T3_M11,T4_M11,T5_M11,U1_M11,ZSPAN_M11,X0_M11,X2_M11,X1_M11
2023-02-08 21:00:00,,0822.0,4.97,0.00,24.1,22.3,00.0,33.1,25.5,08.4,0000.0,0002.39,0001.20,0000.75
2023-02-08 21:01:00,,0822.1,5.00,0.00,24.0,22.2,00.0,33.1,25.5,08.5,0000.0,0002.44,0001.22,0000.75
2023-02-08 21:02:00,,0822.1,4.98,0.00,24.0,22.2,00.0,33.0,25.5,08.6,0000.0,0002.49,0001.26,0000.75
2023-02-08 21:03:00,,0822.1,4.99,0.00,24.0,22.2,00.0,33.0,25.4,08.6,0000.0,0002.44,0001.24,0000.75
2023-02-08 21:04:00,,0822.0,4.97,0.00,24.0,22.2,00.0,33.0,25.5,08.7,0000.0,0002.47,0001.25,0000.75
2023-02-08 21:05:00,,0822.0,5.01,0.00,24.0,22.2,00.0,33.0,25.5,08.5,0000.0,0002.37,0001.21,0000.74
2023-02-08 21:06:00,,0822.1,5.00,0.00,23.9,22.2,00.0,33.0,25.5,08.4,0000.0,0002.47,0001.25,0000.75
2023-02-08 21:07:00,,0822.1,5.00,0.00,23.9,22.2,00.0,33.0,25.5,08.3,0000.0,0002.58,0001.28,0000.76
2023-02-08 21:08:00,,0822.1,4.99,0.00,23.9,22.2,00.0,32.9,25.5,08.6,0000.0,0002.46,0001.26,0000.78
2023-02-08 21:09:00,,0822.1,5.02,0.00,23.9,22.2,00.0,32.9,25.5,08.5,0000.0,0002.43,0001.24,0000.78
2023-02-08 21:10:00,,0822.1,5.00,0.00,23.9,22.1,00.0,32.9,25.4,08.8,0000.0,0002.44,0001.24,0000.79
2023-02-08 21:11:00,,0822.1,5.02,0.00,23.9,22.1,00.0,32.9,25.4,08.8,0000.0,0002.49,0001.26,0000.79
2023-02-08 21:12:00,,0822.0,5.01,0.00,23.8,22.1,00.0,32.8,25.4,08.7,0000.0,0002.50,0001.26,0000.80
2023-02-08 21:13:00,,0822.0,5.00,0.00,23.8,22.1,00.0,32.8,25.4,08.6,0000.0,0002.43,0001.25,0000.81
2023-02-08 21:14:00,,0822.0,4.97,0.00,23.8,22.1,00.0,32.8,25.4,08.7,0000.0,0002.64,0001.33,0000.84
2023-02-08 21:15:00,,0821.9,5.01,0.00,23.8,22.1,00.0,32.8,25.4,08.6,0000.0,0003.06,0001.40,0000.85
2023-02-08 21:16:00,,0822.0,5.00,0.00,23.8,22.1,00.0,32.8,25.4,08.3,0000.0,0005.14,0001.42,0000.85
2023-02-08 21:17:00,,0821.9,5.00,0.00,23.8,22.1,00.0,32.8,25.3,08.6,0000.0,0005.54,0001.42,0000.85
2023-02-08 21:18:00,,0821.9,4.99,0.00,23.8,22.1,00.0,32.8,25.4,08.7,0000.0,0005.52,0001.41,0000.85
2023-02-08 21:19:00,,0822.0,5.00,0.00,23.8,22.1,00.0,32.8,25.3,08.7,0000.0,0005.55,0001.42,0000.85
2023-02-08 21:20:00,,0822.0,4.96,0.00,23.7,22.0,00.0,32.7,25.2,08.6,0000.0,0005.67,0001.45,0000.85
2023-02-08 21:21:00,,0822.0,4.98,0.00,23.7,22.0,00.0,32.7,25.2,08.5,0000.0,0005.59,0001.44,0000.84
2023-02-08 21:22:00,,0822.0,5.02,0.00,23.7,22.0,00.0,32.7,25.2,08.8,0000.0,0005.51,0001.42,0000.85
2023-02-08 21:23:00,,0822.0,4.99,0.00,23.7,22.0,00.0,32.7,25.3,08.8,0000.0,0005.48,0001.42,0000.85
2023-02-08 21:24:00,,0822.0,5.01,0.00,23.7,22.0,00.0,32.7,25.2,08.7,0000.0,0005.48,0001.42,0000.85
2023-02-08 21:25:00,,0822.0,5.03,0.00,23.7,22.0,00.0,32.7,25.2,08.7,0000.0,0005.50,0001.44,0000.85
2023-02-08 21:26:00,,0821.9,5.02,0.00,23.7,22.0,00.0,32.7,25.2,08.7,0000.0,0005.09,0001.37,0000.85
2023-02-08 21:27:00,,0821.9,4.99,0.00,23.7,22.0,00.0,32.6,25.1,08.8,0000.0,0003.16,0001.36,0000.85
2023-02-08 21:28:00,,0822.0,5.00,0.00,23.6,21.9,00.0,32.6,25.1,08.8,0000.0,0002.64,0001.35,0000.85
2023-02-08 21:29:00,,0822.0,4.97,0.00,23.6,21.9,00.0,32.6,25.1,08.9,0000.0,0002.67,0001.33,0000.85
2023-02-08 21:30:00,,0822.0,4.99,0.00,23.6,21.9,00.0,32.6,25.1,08.9,0000.0,0002.60,0001.29,0000.84
2023-02-08 21:31:00,,0822.1,5.01,0.00,23.6,21.9,00.0,32.6,25.1,09.0,0000.0,0003.38,0001.29,0000.84
2023-02-08 21:32:00,,0822.1,5.00,0.00,23.6,21.8,00.0,32.6,25.1,09.1,0000.0,0003.55,0001.32,0000.84
2023-02-08 21:33:00,,0822.1,5.02,0.00,23.6,21.8,00.0,32.6,25.1,09.0,0000.0,0003.71,0001.38,0000.85
2023-02-08 21:34:00,,0822.0,4.99,0.00,23.5,21.8,00.0,32.5,25.1,09.1,0000.0,0003.73,0001.37,0000.84
2023-02-08 21:35:00,,0822.0,5.00,0.00,23.5,21.8,00.0,32.5,25.1,09.1,0000.0,0003.69,0001.35,0000.83
2023-02-08 21:36:00,,0822.0,5.01,0.00,23.5,21.8,00.0,32.5,25.0,09.2,0000.0,0003.45,0001.27,0000.81
2023-02-08 21:37:00,,0821.9,5.00,0.00,23.5,21.8,00.0,32.5,25.0,09.0,0000.0,0003.38,0001.25,0000.80
2023-02-08 21:38:00,,0821.8,5.02,0.00,23.5,21.8,00.0,32.5,25.0,08.8,0000.0,0003.27,0001.24,0000.79
2023-02-08 21:39:00,,0821.9,4.98,0.00,23.5,21.8,00.0,32.5,24.9,08.8,0000.0,0003.35,0001.25,0000.78
2023-02-08 21:40:00,,0821.9,4.99,0.00,23.4,21.8,00.0,32.5,24.9,08.8,0000.0,0003.39,0001.30,0000.78
2023-02-08 21:41:00,,0821.9,4.99,0.00,23.4,21.8,00.0,32.4,24.9,08.9,0000.0,0003.55,0001.37,0000.78
2023-02-08 21:42:00,,0821.9,5.02,0.00,23.4,21.8,00.0,32.4,24.9,08.9,0000.0,0002.96,0001.39,0000.77
2023-02-08 21:43:00,,0821.9,4.99,0.00,23.4,21.7,00.0,32.4,24.9,09.0,0000.0,0002.69,0001.37,0000.76
2023-02-08 21:44:00,,0821.7,5.01,0.00,23.4,21.7,00.0,32.4,24.9,09.0,0000.0,0002.50,0001.29,0000.75
2023-02-08 21:45:00,,0821.7,5.04,0.00,23.4,21.7,00.0,32.4,25.0,08.8,0000.0,0003.39,0001.34,0000.75
2023-02-08 21:46:00,,0822.0,5.02,0.00,23.4,21.7,00.0,32.4,25.0,08.7,0000.0,0003.73,0001.37,0000.75
2023-02-08 21:47:00,,0822.0,5.00,0.00,23.4,21.7,00.0,32.4,24.9,09.0,0000.0,0003.73,0001.36,0000.74
2023-02-08 21:48:00,,0822.1,5.00,0.00,23.4,21.7,00.0,32.3,25.0,09.0,0000.0,0003.80,0001.42,0000.75
2023-02-08 21:49:00,,0821.9,5.03,0.00,23.4,21.7,00.0,32.3,25.0,09.1,0000.0,0003.92,0001.49,0000.75
2023-02-08 21:50:00,,0821.8,4.96,0.00,23.4,21.7,00.0,32.3,25.0,08.9,0000.0,0003.83,0001.46,0000.75
2023-02-08 21:51:00,,0821.7,5.03,0.00,23.3,21.7,00.0,32.3,24.9,09.0,0000.0,0004.02,0001.45,0000.75
2023-02-08 21:52:00,,0821.7,4.96,0.00,23.3,21.7,00.0,32.3,25.0,08.8,0000.0,0003.91,0001.41,0000.75
2023-02-08 21:53:00,,0821.8,4.98,0.00,23.3,21.7,00.0,32.3,25.0,08.8,0000.0,0003.85,0001.41,0000.76
2023-02-08 21:54:00,,0821.9,4.97,0.00,23.3,21.7,00.0,32.3,24.9,08.7,0000.0,0003.86,0001.41,0000.76
2023-02-08 21:55:00,,0821.8,5.00,0.00,23.3,21.7,00.0,32.3,24.9,08.7,0000.0,0004.21,0001.41,0000.76
2023-02-08 21:56:00,,0821.8,4.98,0.00,23.3,21.6,00.0,32.3,24.9,08.6,0000.0,0003.51,0001.37,0000.75
2023-02-08 21:57:00,,0821.9,4.99,0.00,23.3,21.6,00.0,32.2,24.9,08.6,0000.0,0003.42,0001.39,0000.74
2023-02-08 21:58:00,,0822.0,4.97,0.00,23.3,21.6,00.0,32.2,24.9,08.6,0000.0,0003.44,0001.39,0000.74
2023-02-08 21:59:00,,0821.9,5.01,0.00,23.3,21.7,00.0,32.2,24.9,09.0,0000.0,0003.34,0001.32,0000.73
